Погода в Вятском

Россия / Хабаровский край     48°44′24″N   135°43′15″E
темп.,
°C
ветер,
м/с
пор.,
м/с
влажн.,
%
обл.,
%
осадки,
мм/ч
давл.,
гПа
погр.,
м
14 июня, пн
пн1401:00+10св34924 0.0 101172
04:00+9ссв23870 0.0 101247
07:00+11св37780 0.0 1013193
10:00+16св47582 0.0 1012503
13:00+19св46505 0.0 1011687
16:00+20ссв464947 0.0 1009676
19:00+18св47665 0.0 1009276
22:00+13ссв33870 0.0 100927
15 июня, вт
вт1501:00+11ссв22910 0.0 100928
04:00+10св22935 0.0 100919
07:00+13в12875 0.0 100892
10:00+18ю12725 0.0 1008371
13:00+21юз226139 0.0 1008630
16:00+23зюз2359100 0.0 1006708
19:00+21зсз237349 0.0 100687
22:00+16зсз117984 0.0 100711
16 июня, ср
ср1601:00+16ю227890 0.0 100711
04:00+14ю22865 0.0 100722
07:00+16ююз348618 0.0 1008117
10:00+20ююз46747 0.0 1008454
13:00+23юз46667 0.0 1007803
16:00+24зюз5766100 0.0 1006854
19:00+21з3683100 0.0 1005224
22:00+19ю22861 0.0 100511
17 июня, чт
чт1701:00+17ююв33955 0.0 100535
04:00+16ю34964 0.0 100565
07:00+17ю3591100 0.0 1005125
10:00+22ююз357399 0.0 1004320
13:00+25ююз3562100 0.0 1002723
16:00+26зюз2357100 0.0 1000749
19:00+23з3474100 0.0 99981
22:00+19св1175100 0.0 100011
18 июня, пт
пт1801:00+18в1181100 0.0 99911
04:00+17ю3487100 0.0 99953
07:00+17юз1284100 0.0 100073
10:00+20ююз1270100 0.0 1000336
13:00+23ю2456100 0.0 1000712
16:00+24зюз3452100 0.0 999763
19:00+21зсз3469100 0.0 99992
22:00+17з51083100 0.0 1001181